Date String (YYYY-MM-DD hh:mm:ss) UTC,Instrument flags,absolute air pressure of the measurement (hPa),sample flow rate (lpm),inlet stack bypass flow (lpm),air temperature of the measurement (°C),ambient temperature measured by the external sensor (°C),aerosol sample conditioner tube jacket temperature (°C),OPC LED temperature (°C),internal box temperature (°C),relative humidity of the measurement (%),span deviation,mass concentration of particles derived from Lorenz-Mie calculation of OPC scattering (μg/m³),mass concentration of particles derived from Lorenz-Mie calculation of OPC scattering (μg/m³),mass concentration of particles derived from Lorenz-Mie calculation of OPC scattering (μg/m³)
DateTimeUTC,F1_M11,P_M11,Q1_M11,Q2_M11,T1_M11,T2_M11,T3_M11,T4_M11,T5_M11,U1_M11,ZSPAN_M11,X0_M11,X2_M11,X1_M11
2023-07-12 05:00:00,SystemResetWarning,0830.5,4.98,000.00,029.1,027.8,000.0,037.5,030.8,19.7,0000.0,0015.66,0005.38,0004.16
2023-07-12 05:01:00,SystemResetWarning,0830.5,5.01,000.00,029.2,028.0,000.0,037.5,030.9,19.7,0000.0,0013.22,0005.32,0004.14
2023-07-12 05:02:00,SystemResetWarning,0830.6,4.99,000.00,029.2,027.2,000.0,037.4,030.8,19.8,0000.0,0012.05,0005.25,0004.13
2023-07-12 05:03:00,SystemResetWarning,0830.5,5.00,000.00,029.1,025.6,000.0,037.3,030.5,20.3,0000.0,0011.12,0005.21,0004.11
2023-07-12 05:04:00,SystemResetWarning,0830.5,5.02,000.00,029.0,025.4,000.0,037.3,030.4,20.8,0000.0,0010.96,0005.22,0004.13
2023-07-12 05:05:00,SystemResetWarning,0830.4,5.00,000.00,028.9,025.6,000.0,037.3,030.2,20.8,0000.0,0011.27,0005.24,0004.13
2023-07-12 05:06:00,SystemResetWarning,0830.7,5.00,000.00,028.9,026.0,000.0,037.3,030.3,20.0,0000.0,0011.31,0005.24,0004.14
2023-07-12 05:07:00,SystemResetWarning,0830.7,5.00,000.00,028.9,026.4,000.0,037.4,030.4,20.0,0000.0,0011.13,0005.27,0004.15
2023-07-12 05:08:00,SystemResetWarning,0830.5,5.01,000.00,028.9,026.8,000.0,037.4,030.5,20.0,0000.0,0011.15,0005.25,0004.16
2023-07-12 05:09:00,SystemResetWarning,0830.5,5.00,000.00,029.0,027.1,000.0,037.4,030.6,20.0,0000.0,0011.51,0005.19,0004.16
2023-07-12 05:10:00,SystemResetWarning,0830.6,5.00,000.00,029.0,027.4,000.0,037.4,030.7,19.7,0000.0,0012.49,0005.20,0004.17
2023-07-12 05:11:00,SystemResetWarning,0830.5,4.99,000.00,029.0,027.6,000.0,037.5,030.7,19.6,0000.0,0012.89,0005.19,0004.19
2023-07-12 05:12:00,SystemResetWarning,0830.8,5.01,000.00,029.1,027.8,000.0,037.5,030.8,19.7,0000.0,0014.11,0005.23,0004.21
2023-07-12 05:13:00,SystemResetWarning,0830.5,5.01,000.00,029.1,027.9,000.0,037.5,030.8,19.7,0000.0,0015.22,0005.27,0004.23
2023-07-12 05:14:00,SystemResetWarning,0830.6,5.00,000.00,029.2,027.6,000.0,037.5,030.9,19.5,0000.0,0015.07,0005.27,0004.24
2023-07-12 05:15:00,SystemResetWarning,0830.4,4.99,000.00,029.1,025.8,000.0,037.4,030.6,19.4,0000.0,0015.34,0005.32,0004.22
2023-07-12 05:16:00,SystemResetWarning,0830.4,5.02,000.00,029.1,025.3,000.0,037.3,030.4,19.4,0000.0,0015.31,0005.33,0004.22
2023-07-12 05:17:00,SystemResetWarning,0830.4,5.00,000.00,029.0,025.5,000.0,037.3,030.3,19.5,0000.0,0015.90,0005.31,0004.21
2023-07-12 05:18:00,SystemResetWarning,0830.4,5.00,000.00,028.9,025.9,000.0,037.4,030.3,19.8,0000.0,0015.97,0005.30,0004.19
2023-07-12 05:19:00,SystemResetWarning,0830.4,5.00,000.00,028.9,026.3,000.0,037.4,030.4,19.3,0000.0,0016.30,0005.29,0004.18
2023-07-12 05:20:00,SystemResetWarning,0830.4,5.00,000.00,028.9,026.7,000.0,037.4,030.5,19.0,0000.0,0016.58,0005.30,0004.18
2023-07-12 05:21:00,SystemResetWarning,0830.3,5.00,000.00,029.0,027.0,000.0,037.4,030.6,18.9,0000.0,0016.06,0005.29,0004.16
2023-07-12 05:22:00,SystemResetWarning,0830.3,4.99,000.00,029.0,027.3,000.0,037.4,030.6,18.9,0000.0,0015.88,0005.27,0004.15
2023-07-12 05:23:00,SystemResetWarning,0830.3,4.99,000.00,029.0,027.5,000.0,037.5,030.7,19.3,0000.0,0015.32,0005.26,0004.12
2023-07-12 05:24:00,SystemResetWarning,0830.3,5.02,000.00,029.1,027.7,000.0,037.5,030.8,18.8,0000.0,0015.31,0005.26,0004.10
2023-07-12 05:25:00,SystemResetWarning,0830.2,5.01,000.00,029.1,027.9,000.0,037.5,030.8,18.7,0000.0,0015.77,0005.28,0004.10
2023-07-12 05:26:00,SystemResetWarning,0830.2,4.99,000.00,029.2,028.0,000.0,037.5,030.9,18.7,0000.0,0014.88,0005.20,0004.09
2023-07-12 05:27:00,SystemResetWarning,0830.2,5.00,000.00,029.2,028.0,000.0,037.5,030.9,18.5,0000.0,0015.01,0005.13,0004.08
2023-07-12 05:28:00,SystemResetWarning,0830.2,5.00,000.00,029.2,026.4,000.0,037.4,030.7,18.7,0000.0,0014.13,0005.11,0004.08
2023-07-12 05:29:00,SystemResetWarning,0830.2,5.02,000.00,029.1,025.3,000.0,037.3,030.6,19.1,0000.0,0014.17,0005.10,0004.09
2023-07-12 05:30:00,SystemResetWarning,0830.3,4.99,000.00,029.1,025.4,000.0,037.3,030.4,19.3,0000.0,0014.18,0005.14,0004.08
2023-07-12 05:31:00,SystemResetWarning,0830.2,5.00,000.00,029.0,025.8,000.0,037.4,030.3,18.9,0000.0,0014.56,0005.13,0004.08
2023-07-12 05:32:00,SystemResetWarning,0830.2,5.00,000.00,029.0,026.2,000.0,037.4,030.4,19.0,0000.0,0014.42,0005.13,0004.08
2023-07-12 05:33:00,SystemResetWarning,0830.2,4.99,000.00,029.0,026.6,000.0,037.4,030.5,18.9,0000.0,0014.98,0005.11,0004.08
2023-07-12 05:34:00,SystemResetWarning,0830.2,4.99,000.00,029.0,026.9,000.0,037.5,030.6,18.9,0000.0,0014.65,0005.10,0004.08
2023-07-12 05:35:00,SystemResetWarning,0830.2,5.00,000.00,029.0,027.2,000.0,037.5,030.6,18.5,0000.0,0013.19,0005.02,0004.07
2023-07-12 05:36:00,SystemResetWarning,0830.2,5.00,000.00,029.1,027.4,000.0,037.5,030.7,18.9,0000.0,0012.98,0004.95,0004.06
2023-07-12 05:37:00,SystemResetWarning,0830.2,5.00,000.00,029.1,027.6,000.0,037.5,030.8,18.7,0000.0,0013.66,0004.95,0004.04
2023-07-12 05:38:00,SystemResetWarning,0830.2,5.00,000.00,029.1,027.8,000.0,037.5,030.8,18.4,0000.0,0013.60,0004.99,0004.03
2023-07-12 05:39:00,SystemResetWarning,0830.3,5.00,000.00,029.2,028.0,000.0,037.6,030.9,18.3,0000.0,0014.68,0004.99,0004.00
2023-07-12 05:40:00,SystemResetWarning,0830.3,4.99,000.00,029.2,028.1,000.0,037.6,030.9,18.1,0000.0,0014.83,0004.96,0003.98
2023-07-12 05:41:00,SystemResetWarning,0830.3,5.00,000.00,029.3,027.9,000.0,037.6,030.9,18.2,0000.0,0014.53,0004.92,0003.97
2023-07-12 05:42:00,SystemResetWarning,0830.2,5.00,000.00,029.2,026.1,000.0,037.5,030.7,18.5,0000.0,0013.49,0004.92,0003.95
2023-07-12 05:43:00,SystemResetWarning,0830.2,5.01,000.00,029.2,025.3,000.0,037.4,030.5,18.0,0000.0,0012.97,0004.88,0003.93
2023-07-12 05:44:00,SystemResetWarning,0830.2,5.01,000.00,029.1,025.4,000.0,037.4,030.3,17.9,0000.0,0012.34,0004.87,0003.92
2023-07-12 05:45:00,SystemResetWarning,0830.3,5.00,000.00,029.0,025.8,000.0,037.4,030.3,17.9,0000.0,0012.21,0004.89,0003.90
2023-07-12 05:46:00,SystemResetWarning,0830.2,5.00,000.00,029.0,026.2,000.0,037.4,030.4,18.1,0000.0,0012.71,0004.91,0003.88
2023-07-12 05:47:00,SystemResetWarning,0830.3,5.00,000.00,029.0,026.6,000.0,037.5,030.5,18.3,0000.0,0012.55,0004.91,0003.85
2023-07-12 05:48:00,SystemResetWarning,0830.2,5.00,000.00,029.0,026.9,000.0,037.5,030.6,18.2,0000.0,0011.44,0004.89,0003.85
2023-07-12 05:49:00,SystemResetWarning,0830.2,4.99,000.00,029.1,027.2,000.0,037.5,030.7,18.3,0000.0,0011.43,0004.85,0003.84
2023-07-12 05:50:00,SystemResetWarning,0830.2,5.00,000.00,029.1,027.5,000.0,037.5,030.7,18.2,0000.0,0010.97,0004.81,0003.83
2023-07-12 05:51:00,SystemResetWarning,0830.1,5.00,000.00,029.1,027.7,000.0,037.5,030.8,18.2,0000.0,0010.72,0004.79,0003.82
2023-07-12 05:52:00,SystemResetWarning,0830.1,5.00,000.00,029.2,027.8,000.0,037.6,030.8,18.0,0000.0,0010.81,0004.76,0003.81
2023-07-12 05:53:00,SystemResetWarning,0830.1,4.99,000.00,029.2,028.0,000.0,037.6,030.9,18.0,0000.0,0010.92,0004.74,0003.79
2023-07-12 05:54:00,SystemResetWarning,0830.1,5.00,000.00,029.3,028.1,000.0,037.6,031.0,17.9,0000.0,0011.20,0004.76,0003.80
2023-07-12 05:55:00,SystemResetWarning,0830.1,5.00,000.00,029.3,027.8,000.0,037.6,031.0,18.0,0000.0,0011.28,0004.80,0003.80
2023-07-12 05:56:00,SystemResetWarning,0830.1,4.99,000.00,029.2,026.0,000.0,037.5,030.7,17.9,0000.0,0011.17,0004.75,0003.79
2023-07-12 05:57:00,SystemResetWarning,0830.1,5.02,000.00,029.2,025.4,000.0,037.4,030.5,17.8,0000.0,0010.86,0004.73,0003.79
2023-07-12 05:58:00,SystemResetWarning,0830.1,5.00,000.00,029.1,025.6,000.0,037.4,030.4,17.9,0000.0,0010.83,0004.78,0003.81
2023-07-12 05:59:00,SystemResetWarning,0830.1,5.00,000.00,029.0,025.9,000.0,037.4,030.4,18.1,0000.0,0010.99,0004.81,0003.80
